Location: Bednik
(45.3500°N, 16.3833°E)
Time: 06:32:52
(UTC+00:00)

Cosmos 2251 Rocket - Pass Details

Date: 08 August 2020
Orbit: 764 x 792 km, 74.0° (Epoch: 26 September)

Event Time Altitude Azimuth Distance (km) Brightness Sun altitude
Rises 19:15:54 0° 214° (SSW) 3,222 6.7 -10.6°
Reaches altitude 10° 19:18:19 10° 219° (SW) 2,303 6.0 -10.9°
Maximum altitude 19:23:25 53° 296° (WNW) 950 4.4 -11.6°
Drops below altitude 10° 19:28:36 10° 13° (NNE) 2,335 6.3 -12.4°
Sets 19:31:04 0° 18° (NNE) 3,271 7.0 -12.7°
